Regional Weather Roundup
Issued by NWS

Home | Current Version | Previous Version | Graphics & Text | Print | Product List | Glossary On
Versions: 1 2 3 4 5 6 7 8 9 10 11 12 13 14 15 16 17 18 19 20 21 22 23 24 25 26 27 28 29 30 31 32 33 34 35 36 37 38 39 40 41 42 43 44 45 46 47 48 49 50
000
ASUS43 KBIS 280701
RWRND

NORTH DAKOTA REGIONAL WEATHER ROUNDUP
NATIONAL WEATHER SERVICE BISMARCK ND
100 AM CST WED JAN 28 2015

NOTE: "FAIR" INDICATES FEW OR NO CLOUDS BELOW 12,000 FEET WITH NO
SIGNIFICANT WEATHER AND/OR OBSTRUCTIONS TO VISIBILITY.


NDZ001>003-009>011-017-280800-
NORTHWEST NORTH DAKOTA

CITY           SKY/WX    TMP DP  RH WIND       PRES   REMARKS
WILLISTON      CLOUDY    32  29  88 S3        29.74F
MINOT          MOCLDY    30  28  92 W6        29.76F
MINOT AFB      MOCLDY    28  28 100 NW5       29.76S
$$

NDZ018>021-031>035-040>046-280800-
SOUTHWEST NORTH DAKOTA

CITY           SKY/WX    TMP DP  RH WIND       PRES   REMARKS
BISMARCK       CLOUDY    29  28  96 CALM      29.78F
DICKINSON      CLEAR     39  30  70 NW5       29.74F
GARRISON         N/A     31  29  92 CALM      29.74F
HETTINGER ARPT CLEAR     28  26  92 W3        29.78F
$$

NDZ004>008-012>016-024-026-027-054-280800-
NORTHEAST NORTH DAKOTA

CITY           SKY/WX    TMP DP  RH WIND       PRES   REMARKS
GRAND FORKS    CLOUDY    34  31  88 S15       29.88F
GRND FRKS AFB  CLOUDY    33  31  95 S14       29.87F
DEVILS LAKE    CLOUDY    34  30  86 SE10      29.78F VSB 1/2
$$

NDZ022-023-025-028>030-036>039-047>053-280800-
SOUTHEAST NORTH DAKOTA

CITY           SKY/WX    TMP DP  RH WIND       PRES   REMARKS
FARGO          CLOUDY    35  32  88 S23G30    29.89F
JAMESTOWN      FOG       33  33 100 S12       29.79F VSB 1/4
$$




USA.gov is the U.S. government's official web portal to all federal, state and local government web resources and services.